Theta_e
327 326 326 326 325 325 325 324 324 324 325 324 325 324 324 323 323 321 318 316 313 312 311 309 307 305 305 313 313 313 311 309 307 313 314 315 315 316 319 320 320 320 319 319 319 319 319
328 328 327 326 326 326 325 323 323 325 324 324 324 324 323 323 320 318 314 311 310 310 308 306 304 304 309 311 311 312 310 308 313 314 315 315 316 318 318 318 319 319 319 320 319 319 319
325 327 326 325 325 327 325 325 325 325 324 324 323 322 322 318 313 311 310 309 308 307 306 304 303 303 309 310 311 310 311 310 312 315 316 316 316 316 316 319 319 318 319 318 318 318 319
317 316 319 318 322 324 324 323 320 318 322 321 321 317 311 309 308 307 307 306 305 305 304 303 302 303 310 310 310 308 309 310 311 311 312 313 317 316 317 317 319 319 319 319 320 320 320
312 314 314 314 312 312 312 312 311 310 309 308 307 307 306 305 305 305 304 304 303 303 302 302 303 313 311 310 309 314 315 316 314 312 311 314 316 317 319 318 319 320 321 321 321 321 320
313 312 311 312 312 312 311 311 310 309 307 305 304 304 303 303 302 302 302 301 301 302 302 305 309 309 310 310 312 314 316 317 317 316 315 316 316 318 318 319 320 319 320 321 321 321 320
310 311 311 311 312 312 312 311 310 311 310 309 306 306 305 301 301 300 300 307 311 314 309 311 313 311 312 311 311 310 315 317 318 316 316 317 318 318 318 319 319 320 320 320 320 319 319
310 310 310 311 311 311 310 310 309 310 310 311 310 308 303 300 300 299 299 307 309 309 308 308 310 309 310 309 309 311 315 317 317 317 317 317 318 319 319 318 318 320 320 318 318 319 319
309 309 310 310 310 310 310 309 308 307 306 306 305 303 302 300 299 299 302 308 308 308 309 308 308 308 308 308 308 310 310 315 316 316 317 317 317 319 317 318 318 320 319 318 318 318 318
308 309 309 309 309 310 310 309 308 307 306 304 303 302 301 300 299 306 307 308 308 307 311 311 309 309 309 308 309 309 308 311 314 315 315 316 317 316 317 316 317 317 316 316 317 317 317
309 309 309 308 308 308 309 309 308 306 305 303 302 302 301 299 309 306 311 309 307 310 314 313 310 309 312 309 314 310 309 309 312 315 315 315 315 315 315 316 316 316 316 316 316 316 315
306 307 307 308 307 307 308 308 308 306 304 304 303 303 301 300 300 309 308 303 310 316 315 313 314 312 315 312 312 316 313 310 309 310 312 313 313 314 315 315 315 315 314 315 315 316 318
303 305 305 305 306 306 307 307 306 305 305 305 304 303 302 304 305 305 302 310 312 313 311 312 314 313 314 314 314 315 313 311 312 310 311 311 312 314 314 314 315 314 314 314 315 317 320
302 302 304 306 305 305 305 307 307 306 306 305 304 303 303 302 304 304 308 310 311 308 309 309 311 313 315 315 315 316 315 314 313 314 314 314 315 314 314 313 314 315 316 318 317 318 316
301 301 302 304 305 306 305 305 307 306 306 306 303 303 303 303 303 305 309 311 305 307 309 308 310 309 313 313 314 316 316 315 315 314 315 314 315 315 314 315 313 313 314 314 316 316 317
297 299 300 301 302 304 305 304 304 306 305 306 303 303 303 305 301 305 309 309 306 306 306 307 306 310 312 312 314 314 316 315 314 315 315 314 314 314 315 314 314 314 314 315 317 317 317
296 296 297 299 299 301 303 304 303 305 305 304 303 302 303 306 300 304 308 307 305 305 306 306 307 307 307 307 309 309 309 312 312 313 313 313 314 314 314 314 313 312 314 313 314 315 316
294 295 295 296 298 298 302 303 303 303 305 304 303 304 304 304 303 304 306 305 304 305 305 305 306 306 306 307 307 307 309 312 311 311 311 310 311 312 312 313 312 311 312 314 317 316 317
295 294 295 297 296 298 299 302 303 303 304 304 303 303 305 303 306 305 302 303 304 305 305 305 306 306 305 306 306 307 308 308 308 310 310 311 310 309 308 308 309 309 310 310 313 314 315
294 295 295 295 297 296 298 302 303 304 304 303 301 301 302 304 304 305 305 304 304 304 306 305 305 305 305 304 305 305 305 307 308 308 307 308 310 308 310 308 308 308 308 309 312 315 315
294 295 295 297 297 298 301 303 302 302 303 303 299 302 303 303 304 306 305 305 305 304 305 305 305 305 305 305 305 305 304 305 307 307 308 308 308 306 306 306 306 307 308 309 310 311 314
292 294 295 295 297 298 298 299 300 303 302 302 299 302 304 305 303 305 306 306 304 304 305 305 304 304 305 305 305 305 305 306 307 307 310 309 309 308 307 308 307 307 306 307 307 308 308
292 292 293 295 296 296 297 299 299 300 302 300 299 301 304 305 306 306 307 305 305 305 305 304 305 305 304 305 305 306 307 307 307 308 308 309 309 309 308 307 308 309 309 308 308 308 309
292 292 292 293 295 296 296 297 299 299 299 299 299 301 301 305 307 307 305 305 305 305 305 305 304 304 304 304 305 305 305 306 306 306 306 306 308 308 309 309 310 309 307 307 307 308 309
291 291 291 292 293 294 295 296 297 297 298 299 299 299 300 306 305 305 305 305 304 304 304 304 304 304 304 305 305 305 305 304 304 304 305 306 307 308 308 308 307 307 307 309 309 309 309
291 291 290 292 293 293 294 294 295 294 295 297 298 298 298 300 304 304 306 304 306 305 305 304 303 304 303 304 304 303 302 302 304 303 305 306 307 307 308 307 308 308 307 306 307 309 309
291 291 291 290 291 292 292 293 293 294 295 296 297 298 298 299 300 302 304 303 304 305 306 304 303 303 302 304 303 302 302 302 303 303 304 306 306 307 307 308 307 307 307 307 308 309 308
291 290 291 291 289 291 292 292 292 293 294 296 296 297 297 299 301 302 302 302 302 304 305 303 303 303 303 303 302 302 303 303 304 305 305 305 306 309 309 309 309 308 308 309 309 308 307
290 290 290 291 289 290 291 292 293 293 294 295 296 297 298 298 299 301 302 303 303 304 303 303 303 303 303 304 304 303 304 305 304 306 305 307 306 307 307 308 309 307 307 306 307 306 307
Wind_Speed
39 37 35 33 30 29 27 25 24 23 22 21 20 20 21 21 21 20 20 19 18 19 19 20 19 20 16 7 12 13 12 14 7 6 8 10 11 12 11 12 10 10 14 14 6 8 9
45 42 40 36 34 33 31 28 28 28 25 25 23 22 23 23 21 20 19 19 18 18 18 17 17 15 10 13 6 7 11 6 6 6 9 7 9 9 10 14 13 16 11 15 13 14 14
31 39 41 38 38 39 35 33 33 33 29 25 25 23 23 22 21 18 17 18 17 17 17 16 15 15 11 18 7 13 9 6 5 5 8 6 7 7 6 11 10 11 14 16 20 20 17
6 7 15 16 28 37 37 34 28 20 25 24 22 20 20 19 18 17 15 15 16 16 15 15 14 13 10 11 13 15 12 10 11 9 9 9 8 11 14 12 11 13 14 14 15 19 8
9 0 3 6 7 6 9 12 12 11 10 11 14 15 15 15 15 14 13 14 15 15 15 15 12 5 10 9 7 4 5 3 5 9 10 8 6 11 9 9 10 13 12 13 11 14 9
19 20 15 12 11 10 8 10 12 12 10 8 7 10 10 11 13 13 12 12 15 15 14 12 10 9 12 7 6 5 5 6 4 5 6 8 8 8 9 11 11 13 11 11 10 12 10
17 17 19 22 23 21 15 13 12 11 15 14 12 12 10 10 11 10 9 8 9 5 10 11 4 10 1 3 6 6 10 7 8 9 9 15 9 12 17 18 16 14 14 15 15 17 14
15 17 19 21 17 17 16 15 15 13 14 15 16 15 11 12 10 8 6 4 6 5 12 18 25 26 22 11 6 13 12 10 14 13 16 13 14 16 16 17 7 12 14 16 17 16 15
18 16 16 18 20 19 17 15 14 12 12 11 11 11 10 12 9 8 6 8 7 7 9 18 27 26 23 19 15 18 20 17 16 16 17 19 15 6 5 13 11 14 15 16 18 16 15
25 24 23 22 20 20 19 16 15 13 13 15 15 13 11 7 5 2 9 7 4 3 6 7 9 7 14 12 10 24 18 22 14 20 19 17 19 21 14 14 15 18 16 15 11 9 11
22 23 23 24 23 23 23 20 19 17 15 15 13 11 10 9 3 4 2 4 3 1 6 8 10 11 12 18 5 8 18 13 18 18 11 13 9 10 15 18 16 19 8 7 11 12 13
22 29 24 24 22 21 22 23 21 19 16 14 13 12 8 8 14 4 10 6 2 4 10 8 9 10 13 18 12 7 8 11 11 19 18 19 24 9 11 13 9 8 4 11 13 10 12
20 20 23 25 23 23 23 22 23 20 19 17 14 11 9 8 1 12 7 4 3 7 5 6 8 14 15 12 15 10 12 12 10 9 15 19 20 15 14 10 9 8 9 5 6 9 11
18 21 24 24 26 26 25 26 24 24 22 21 18 15 13 12 5 7 8 5 10 9 20 6 0 11 15 14 14 14 13 13 19 15 10 13 14 20 15 16 14 17 13 7 9 10 14
25 23 22 25 25 27 29 28 28 25 24 26 23 19 18 15 13 14 11 8 10 16 7 8 18 11 13 16 10 16 18 15 17 18 13 9 13 14 19 9 13 13 12 14 12 13 12
22 27 27 26 25 26 29 29 30 29 26 25 26 21 22 16 13 15 6 19 17 17 8 9 13 9 10 11 9 8 12 7 11 2 9 13 11 7 11 9 12 8 10 8 4 3 12
27 26 25 30 28 28 30 30 31 32 30 27 26 10 16 22 18 14 10 13 23 24 16 3 11 14 11 10 10 12 14 7 5 7 6 11 11 12 11 6 14 12 12 11 9 9 11
26 27 28 25 31 31 31 31 34 35 33 32 22 6 17 27 10 8 13 11 15 19 21 7 6 8 12 10 14 12 15 7 10 6 6 6 5 9 14 13 14 3 11 11 5 6 2
21 26 27 29 29 30 35 34 35 38 41 38 13 9 22 33 8 10 16 16 22 19 20 14 12 11 10 12 8 10 12 10 5 4 4 9 3 7 13 14 16 15 12 17 15 12 15
19 21 22 26 29 31 35 39 37 41 45 45 15 4 10 25 19 18 19 19 18 29 16 14 13 10 12 13 14 8 11 6 6 4 4 4 8 13 11 15 16 15 15 16 15 10 13
19 19 20 22 26 29 30 39 42 45 42 49 15 6 11 9 14 18 17 15 22 19 27 15 13 17 12 10 12 14 18 17 11 10 5 5 12 15 18 22 21 21 21 22 20 17 17
19 19 21 21 25 21 33 33 31 41 47 40 12 6 17 14 25 21 19 20 23 20 17 19 17 15 15 15 15 15 18 18 17 16 16 13 12 12 18 20 19 22 23 24 23 22 23
19 20 18 20 19 20 20 32 29 34 35 17 28 22 12 14 16 16 21 25 23 21 19 27 19 13 15 13 10 15 9 8 11 10 6 13 4 11 16 17 17 11 22 21 21 20 19
18 18 18 19 19 16 21 17 23 24 33 20 20 11 8 6 11 20 21 25 22 19 16 17 14 9 19 6 6 10 16 16 16 16 18 14 13 9 12 13 16 16 20 20 21 21 21
19 17 17 18 19 15 17 19 18 16 20 26 19 11 4 2 18 14 17 17 23 21 10 12 13 2 1 3 1 5 8 12 18 19 19 15 14 13 13 15 17 25 19 10 14 20 20
21 19 17 17 19 17 17 18 14 14 17 12 14 15 4 2 6 18 16 21 11 11 12 17 9 6 6 2 2 10 11 13 11 21 24 21 18 13 13 16 18 24 16 21 8 16 10
23 21 19 18 18 18 19 18 18 17 13 13 7 15 9 6 11 7 8 7 19 16 8 9 9 8 7 4 5 8 13 15 17 17 17 9 13 15 15 14 14 22 21 26 14 8 6
25 24 21 19 18 17 18 17 17 15 13 16 17 19 13 5 9 9 18 15 18 24 9 12 10 4 3 5 5 7 8 10 15 16 16 15 11 10 8 11 14 5 12 8 3 3 4
27 25 22 20 19 18 17 18 16 15 14 16 14 13 15 17 8 10 14 16 22 14 18 22 9 15 9 5 5 3 6 5 10 11 11 13 14 12 12 9 2 7 14 17 13 9 7
Wind_Direction
239 237 236 235 235 238 243 246 248 245 247 251 253 261 270 278 283 288 292 294 296 299 304 309 317 320 334 296 293 289 292 303 308 311 290 297 292 283 266 288 290 263 269 279 238 267 262
245 236 234 235 236 237 239 244 247 237 241 249 253 259 267 271 277 283 287 290 292 296 301 307 314 316 327 280 263 298 295 298 292 276 282 268 280 319 307 283 288 306 306 291 269 252 246
231 233 243 235 231 227 233 234 225 234 238 243 254 259 264 269 273 275 282 287 291 294 297 305 310 317 288 257 276 295 277 280 261 270 279 274 280 275 311 286 300 282 281 270 254 243 249
181 161 190 193 205 215 221 222 218 221 232 238 246 256 264 264 269 275 279 283 288 289 295 302 305 315 263 275 266 266 272 266 254 240 257 280 274 277 264 264 277 260 261 263 264 212 154
315 239 274 251 267 231 208 205 207 207 221 235 245 244 257 271 271 275 280 282 285 289 292 292 300 312 272 267 280 239 220 232 226 240 242 255 265 253 250 239 261 218 250 257 243 169 164
276 276 279 288 297 303 287 258 238 226 228 228 239 257 262 270 280 281 283 287 292 286 279 283 259 275 249 229 203 221 233 181 165 179 207 235 226 240 223 232 246 264 261 259 274 173 203
235 239 241 246 258 265 270 265 251 246 241 242 252 259 268 279 279 281 283 315 300 267 210 219 261 251 241 191 266 239 204 191 214 204 218 198 216 232 241 236 259 284 276 281 285 300 283
231 233 232 230 236 245 237 240 245 242 245 249 251 250 264 272 265 267 259 228 323 306 290 251 258 254 252 261 266 230 202 209 208 221 222 245 228 250 270 277 301 286 275 273 280 277 273
245 242 241 225 233 234 239 249 256 263 269 255 237 246 253 268 275 258 228 263 265 306 265 268 242 239 239 228 232 237 214 224 242 229 240 251 248 137 263 274 240 251 259 271 275 286 293
241 237 237 236 237 234 232 233 237 247 266 265 251 250 252 246 250 246 251 230 277 287 272 245 200 232 197 205 247 231 227 217 235 237 253 260 260 263 246 242 263 264 273 288 299 286 269
237 232 225 225 225 227 227 230 235 248 248 237 237 235 245 196 153 249 216 284 251 122 284 98 125 150 179 188 117 194 206 222 233 231 226 231 231 245 256 260 237 262 290 301 279 275 285
249 245 238 223 225 225 230 233 235 230 222 216 214 218 209 210 220 238 245 243 147 230 241 190 134 187 186 213 237 133 188 216 243 242 250 242 269 272 241 257 241 280 279 268 253 250 254
247 247 240 237 231 232 232 234 226 222 217 209 206 207 204 167 255 216 200 156 203 234 262 176 179 180 204 190 220 174 186 197 196 195 228 241 233 231 239 240 200 226 246 269 248 233 242
249 246 240 242 233 231 234 234 224 222 221 216 209 207 212 199 232 224 157 213 236 230 241 349 318 177 212 214 209 195 198 211 225 230 278 213 219 213 194 227 223 210 225 230 275 279 295
253 252 247 239 239 232 230 230 231 226 231 216 208 208 224 211 206 178 205 211 220 236 279 327 231 253 223 240 217 206 221 220 217 219 236 256 255 179 206 186 227 248 251 269 283 284 285
253 249 246 246 241 239 232 230 230 228 222 222 202 201 225 213 201 175 214 239 227 258 297 296 273 223 239 219 214 208 242 260 262 282 308 275 279 187 184 230 248 264 294 296 292 265 271
254 253 250 243 243 240 240 234 229 226 219 214 201 194 219 200 178 191 219 226 223 252 294 264 282 286 278 287 288 287 263 113 353 266 297 297 279 258 233 188 254 244 232 245 277 280 273
252 247 250 249 240 239 235 237 226 221 218 207 191 207 189 189 176 206 234 236 247 261 276 229 298 296 300 303 291 299 297 72 19 22 308 7 320 290 274 269 277 309 290 277 238 252 222
261 252 246 246 246 240 236 229 227 218 214 200 200 192 190 185 199 212 236 245 243 246 236 228 232 249 273 266 282 258 265 106 234 275 356 346 242 281 277 270 267 265 259 260 263 246 263
266 260 256 248 247 244 239 232 226 219 214 203 185 175 184 197 219 215 221 237 242 238 242 239 250 244 251 240 253 255 259 177 169 245 65 3 270 258 273 285 308 302 289 275 260 267 273
261 262 254 254 251 241 228 228 224 223 212 198 186 190 182 179 215 220 230 227 227 230 229 225 242 245 233 227 226 237 244 262 194 202 214 224 258 265 271 271 274 277 283 277 272 271 249
259 262 258 250 242 235 231 239 218 217 221 202 188 188 175 202 206 213 220 234 229 221 221 209 224 240 231 242 249 245 242 234 229 217 213 218 244 259 271 274 282 281 275 273 275 277 280
258 261 263 246 240 239 230 219 230 213 198 200 200 204 199 212 200 199 216 223 237 230 220 231 214 237 229 248 336 309 330 258 269 283 268 256 236 275 265 275 282 290 259 268 274 275 279
251 254 258 261 237 232 231 219 218 213 221 208 185 172 172 211 196 204 207 217 227 236 246 224 267 220 250 307 308 286 277 268 258 261 269 265 265 258 259 274 267 257 269 278 285 286 282
249 252 247 255 262 224 240 227 218 220 227 223 220 205 110 219 197 209 215 214 220 227 221 256 232 82 33 137 242 267 254 267 263 269 257 251 257 258 256 258 270 281 269 292 288 284 282
244 249 247 239 245 242 232 235 235 233 237 222 225 218 235 44 219 201 212 212 215 212 209 211 162 156 124 80 247 240 244 249 245 237 229 239 235 239 244 250 258 256 280 275 331 279 316
241 239 244 241 236 233 232 229 224 226 220 216 213 179 195 203 240 227 227 222 230 206 203 185 156 186 173 195 221 244 254 252 254 268 277 238 232 236 240 250 258 269 284 282 273 281 16
233 235 235 238 236 233 229 230 228 225 217 212 217 220 220 256 264 246 249 227 252 226 179 161 150 219 179 205 236 237 255 254 260 259 260 266 246 223 231 241 259 294 304 287 355 335 287
230 228 230 234 235 230 228 222 220 217 219 222 226 230 243 219 250 251 245 230 246 224 180 168 176 166 165 197 217 253 255 285 285 279 287 263 259 268 252 259 246 241 236 273 280 276 284